Weather History for KPRN - November, 2012

Change the Weather History Date:

Tuesday, November 20, 2012

  Actual Average Record
Temperature  
Mean Temperature 53 °F -  
Max Temperature 64 °F 69 °F 82 °F (1978)
Min Temperature 42 °F 44 °F 25 °F (1969)
Degree Days  
Heating Degree Days 12    
Growing Degree Days 3 (Base 50)    
Moisture  
Dew Point 47 °F    
Average Humidity 81    
Maximum Humidity 93    
Minimum Humidity 64    
Precipitation  
Precipitation 0.00 in - - ()
Sea Level Pressure  
Sea Level Pressure 30.12 in    
Wind  
Wind Speed 3 mph (NNW)    
Max Wind Speed 7 mph    
Max Gust Speed -    
Visibility 10 miles    
Events Rain    
Averages and records for this station are not official NWS values.
T = Trace of Precipitation, MM = Missing Value Source: NWS Daily Summary

Daily Weather History Graph

Daily Weather History Graph

Search for Another Location

Airport or City:

Trip Planner

Search our weather history database for the weather conditions in past years. The results will help you decide how hot, cold, wet, or windy it might be!

Date:

Astronomy

Nov. 20, 2012 Rise Set
Actual Time 6:19 AM CST 4:44 PM CST
Civil Twilight 5:53 AM CST 5:10 PM CST
Nautical Twilight 5:23 AM CST 5:40 PM CST
Astronomical Twilight 4:54 AM CST 6:09 PM CST
Moon 12:06 PM CST (11/20) No Moon Set
Length of Visible Light 11h 17m
Length of Day
10h 24m
First Quarter, 51% of the Moon is Illuminated
Nov 20
First Quarter
Nov 28
Full
Dec 6
Last Quarter
Dec 13
New
Dec 19
First Quarter

Hourly Weather History & Observations

Time (CST) Temp. Windchill Dew Point Humidity Pressure Visibility Wind Dir Wind Speed Gust Speed Precip Events Conditions
12:56 AM 44.1 °F 42.5 °F 41.0 °F 89% 30.16 in 10.0 mi NNW 3.5 mph - N/A   Clear
1:56 AM 43.0 °F 40.3 °F 39.9 °F 89% 30.16 in 10.0 mi NNW 4.6 mph - N/A   Clear
2:56 AM 44.1 °F 42.5 °F 42.1 °F 93% 30.16 in 10.0 mi North 3.5 mph - N/A   Mostly Cloudy
3:56 AM 45.0 °F 43.5 °F 41.0 °F 86% 30.15 in 10.0 mi North 3.5 mph - N/A   Clear
4:56 AM 43.0 °F - 39.9 °F 89% 30.15 in 10.0 mi Calm Calm - N/A   Clear
5:56 AM 42.1 °F 40.2 °F 39.0 °F 89% 30.17 in 10.0 mi NNW 3.5 mph - N/A   Clear
6:56 AM 44.1 °F - 41.0 °F 89% 30.19 in 10.0 mi Calm Calm - N/A   Partly Cloudy
7:56 AM 51.1 °F - 46.9 °F 86% 30.19 in 10.0 mi NNW 3.5 mph - N/A   Partly Cloudy
8:56 AM 57.9 °F - 50.0 °F 75% 30.19 in 10.0 mi North 5.8 mph - N/A   Scattered Clouds
9:56 AM 61.0 °F - 52.0 °F 72% 30.19 in 10.0 mi North 4.6 mph - 0.00 in   Mostly Cloudy
10:56 AM 62.1 °F - 54.0 °F 75% 30.17 in 10.0 mi Calm Calm - 0.00 in Rain Light Rain
11:56 AM 64.4 °F - 51.8 °F 64% 29.54 in 10.0 mi North 4.6 mph - N/A   Mostly Cloudy
12:56 PM 64.0 °F - 52.0 °F 65% 30.12 in 10.0 mi North 5.8 mph - 0.00 in   Overcast
1:56 PM 63.0 °F - 53.1 °F 70% 30.10 in 10.0 mi NNW 4.6 mph - N/A   Scattered Clouds
2:56 PM 64.0 °F - 52.0 °F 65% 30.10 in 10.0 mi NNW 5.8 mph - N/A   Mostly Cloudy
3:56 PM 63.0 °F - 52.0 °F 67% 30.10 in 10.0 mi West 6.9 mph - N/A   Mostly Cloudy
4:56 PM 60.1 °F - 51.1 °F 72% 30.11 in 10.0 mi West 3.5 mph - N/A   Overcast
5:56 PM 55.9 °F - 50.0 °F 80% 30.12 in 10.0 mi West 3.5 mph - N/A   Scattered Clouds
6:56 PM 55.0 °F - 48.9 °F 80% 30.12 in 10.0 mi Calm Calm - N/A   Partly Cloudy
7:56 PM 52.0 °F - 48.0 °F 86% 30.13 in 10.0 mi Calm Calm - N/A   Clear
8:56 PM 50.0 °F - 46.9 °F 89% 30.13 in 10.0 mi Calm Calm - N/A   Clear
9:56 PM 48.0 °F - 45.0 °F 89% 30.14 in 10.0 mi Calm Calm - N/A   Clear
10:56 PM 46.0 °F - 43.0 °F 89% 30.14 in 10.0 mi Calm Calm - N/A   Clear
11:56 PM 45.0 °F 43.5 °F 42.1 °F 90% 30.14 in 10.0 mi North 3.5 mph - N/A   Clear